Regional Weather Roundup
Issued by NWS

Home | Current Version | Previous Version | Graphics & Text | Print | Product List | Glossary On
Versions: 1 2 3 4 5 6 7 8 9 10 11 12 13 14 15 16 17 18 19 20 21 22 23 24 25 26 27
000
ASUS45 KBOI 300810
RWRID

IDAHO REGIONAL WEATHER ROUNDUP
NATIONAL WEATHER SERVICE BOISE ID
200 AM MDT SAT APR 30 2016

NOTE: "FAIR" INDICATES FEW OR NO CLOUDS BELOW 12000 FEET
WITH NO SIGNIFICANT WEATHER AND/OR OBSTRUCTIONS TO VISIBILITY

IDZ012-014-300900-
SOUTHWEST IDAHO


CITY           SKY/WX    TMP DP  RH WIND       PRES   REMARKS
BOISE          CLEAR     45  37  73 NW17      29.96R
CALDWELL       CLEAR     45  38  76 W13       30.00R
MOUNTAIN HOME  CLEAR     44  37  74 NW20      29.93R
$$

IDZ016-017-300900-
SOUTHCENTRAL IDAHO


CITY           SKY/WX    TMP DP  RH WIND       PRES   REMARKS
BURLEY         LGT RAIN  44  38  79 W15G22    29.90S
JEROME         MOCLDY    41  37  86 SW6       29.92R
TWIN FALLS     CLOUDY    42  36  79 SW12      29.94R
$$

IDZ019>023-300900-
SOUTHEAST IDAHO


CITY           SKY/WX    TMP DP  RH WIND       PRES   REMARKS
IDAHO FALLS    CLOUDY    38  34  85 NW3       29.92S
POCATELLO      PTCLDY    38  36  92 E5        29.91S WCI  34
REXBURG        CLOUDY    40  37  89 NE3       29.92R
$$

IDZ006-010-011-018-031-032-300900-
CENTRAL IDAHO MOUNTAINS


CITY           SKY/WX    TMP DP  RH WIND       PRES   REMARKS
MCCALL         PTCLDY    39  30  70 N10       30.00R WCI  32
HAILEY         CLEAR     34  32  93 NW3       29.94R
STANLEY          N/A     31  27  85 W3        29.99R
SALMON         CLOUDY    37  30  75 CALM      30.00S
CHALLIS        PTCLDY    39  28  64 N9        29.98R WCI  33
$$

IDZ002-004-006-007-026-300900-
NORTHERN IDAHO


CITY           SKY/WX    TMP DP  RH WIND       PRES   REMARKS
LEWISTON       LGT RAIN  50  47  89 CALM      30.09R
LOWELL           N/A     46  44  93 CALM      30.11R
COEUR D`ALENE  CLOUDY    46  43  87 NE3       30.06R
MULLAN PASS    CLOUDY    31  30  96 NW3       30.05R
$$




USA.gov is the U.S. government's official web portal to all federal, state and local government web resources and services.